Location: Unspecified
(40.7945°N, 111.1337°W)
Time: 01:34:08
(UTC-06:00)

Cosmos 1674 - Pass Details

Date: 27 March 2019
Orbit: 495 x 520 km, 82.5° (Epoch: 17 October)

Event Time Altitude Azimuth Distance (km) Brightness Sun altitude
Rises 20:40:20 0° 356° (N) 2,611 6.5 -11.3°
Reaches altitude 10° 20:42:29 10° 1° (N) 1,726 5.5 -11.7°
Maximum altitude 20:46:12 55° 80° (E) 616 2.7 -12.4°
Drops below altitude 10° 20:49:55 10° 159° (SSE) 1,726 5.0 -13.1°
Enters shadow 20:50:37 - 161° (SSE) 2,006 5.4 -13.2°
